Location: Bussy-Saint-Georges
(48.8410°N, 2.7017°E)
Time: 16:19:29
(UTC+00:00)

CZ-4 R/B - Pass Details

Date: 18 October 2021
Orbit: 531 x 595 km, 97.8° (Epoch: 28 November)

Event Time Altitude Azimuth Distance (km) Brightness Sun altitude
Rises 19:38:48 0° 207° (SSW) 2,716 5.0 -27.7°
Reaches altitude 10° 19:41:31 10° 227° (SW) 1,841 4.3 -28.1°
Maximum altitude 19:44:10 17° 269° (W) 1,454 4.2 -28.5°
Drops below altitude 10° 19:46:53 10° 312° (NW) 1,879 4.8 -29.0°
Sets 19:49:43 0° 332° (NNW) 2,797 5.6 -29.4°
